Volver al catálogo

CZ-3C DEB

ActivoGTO
NORAD 39339·DEBRIS·🇨🇳 China

Lanzado Oct 31, 2010 desde Xichang Satellite Launch Center

Loading…

TLE

EnvejeciendoSource: Space-Track

Época: Sep 14, 2026, 18:48 UTC

1 39339U 10057D   26257.78402765  .00000031  00000-0  29527-2 0  9992
2 39339  20.5384 229.7769 7196803 256.4567  24.9990  2.14573544101248

Sigue CZ-3C DEB en tiempo real con AllMySat

Download on the App Store